GW5725 Weather Reports


time (UTC)temp
C
wind
direction
speed
KPH
gust
KPH
rain 1hr
cm
rain 24hr
cm
rain mn
cm
humidity
%
barometer
mb
20260505184011 25 165 3.2 8.0 0.00 0.00 0.00 35 1015.7
20260505183512 25 231 1.6 8.0 0.00 0.00 0.00 36 1015.7
20260505183027 25 100 3.2 11.3 0.00 0.00 0.00 33 1015.7
20260505182514 25 248 3.2 17.7 0.00 0.00 0.00 36 1015.8
20260505182013 25 239 4.8 17.7 0.00 0.00 0.00 36 1015.9
20260505181521 25 142 6.4 14.5 0.00 0.00 0.00 35 1015.9
20260505181003 25 264 3.2 12.9 0.00 0.00 0.00 37 1016.1
20260505180506 25 225 4.8 12.9 0.00 0.00 0.00 36 1016.3
20260505180005 25 49 3.2 6.4 0.00 0.00 0.00 36 1016.4
20260505175505 25 220 1.6 8.0 0.00 0.00 0.00 37 1016.6
20260505175003 25 215 3.2 9.7 0.00 0.00 0.00 36 1016.4
20260505174548 25 226 3.2 9.7 0.00 0.00 0.00 36 1016.5
20260505174006 25 249 3.2 9.7 0.00 0.00 0.00 36 1016.4
20260505173506 25 88 4.8 11.3 0.00 0.00 0.00 37 1016.6
20260505173020 25 345 3.2 17.7 0.00 0.00 0.00 40 1016.6
20260505172506 25 89 3.2 17.7 0.00 0.00 0.00 37 1016.5
20260505172012 25 141 3.2 12.9 0.00 0.00 0.00 38 1016.5
20260505171524 25 269 3.2 11.3 0.00 0.00 0.00 38 1016.4
20260505171008 24 327 4.8 11.3 0.00 0.00 0.00 41 1016.4
20260505170510 24 92 3.2 12.9 0.00 0.00 0.00 39 1016.3
20260505170005 24 205 3.2 12.9 0.00 0.00 0.00 39 1016.3
20260505165504 23 348 3.2 14.5 0.00 0.00 0.00 37 1016.4
20260505165006 23 215 3.2 14.5 0.00 0.00 0.00 39 1016.5
20260505164508 23 91 1.6 17.7 0.00 0.00 0.00 40 1016.5
20260505164006 23 222 4.8 17.7 0.00 0.00 0.00 43 1016.7
20260505163506 23 346 3.2 14.5 0.00 0.00 0.00 41 1016.7
20260505163019 23 162 4.8 14.5 0.00 0.00 0.00 41 1016.7
20260505162507 23 165 3.2 11.3 0.00 0.00 0.00 43 1016.7
20260505162008 23 333 1.6 8.0 0.00 0.00 0.00 42 1016.6
20260505161516 23 203 1.6 6.4 0.00 0.00 0.00 44 1016.8
20260505161007 23 263 1.6 8.0 0.00 0.00 0.00 44 1016.8
20260505160508 23 251 3.2 9.7 0.00 0.00 0.00 43 1017.1
20260505153029 22 188 3.2 8.0 0.00 0.00 0.00 48 1017.2
20260505152506 22 244 1.6 8.0 0.00 0.00 0.00 52 1017.3
20260505152010 22 171 1.6 9.7 0.00 0.00 0.00 51 1017.5
20260505151516 22 232 1.6 9.7 0.00 0.00 0.00 54 1017.6
20260505151009 21 292 1.6 8.0 0.00 0.00 0.00 54 1017.5
20260505150513 21 273 3.2 9.7 0.00 0.00 0.00 53 1017.5
20260505140510 19 339 1.6 6.4 0.00 0.00 0.00 60 1017.1
20260505125012 16 246 1.6 4.8 0.00 0.00 0.00 71 1016.6
20260505124522 16 334 1.6 4.8 0.00 0.00 0.00 71 1016.6
20260505124011 16 286 1.6 9.7 0.00 0.00 0.00 72 1016.5
20260505123510 16 326 1.6 9.7 0.00 0.00 0.00 73 1016.6
20260505123026 16 225 3.2 9.7 0.00 0.00 0.00 73 1016.5
20260505122510 15 234 1.6 6.4 0.00 0.00 0.00 74 1016.6
20260505122010 15 247 1.6 6.4 0.00 0.00 0.00 74 1016.5
20260505121510 15 273 1.6 6.4 0.00 0.00 0.00 75 1016.5
20260505121007 15 293 0.0 11.3 0.00 0.00 0.00 75 1016.5
20260505120506 14 336 3.2 11.3 0.00 0.00 0.00 76 1016.3
20260505120017 14 293 1.6 3.2 0.00 0.00 0.00 76 1016.3
20260505115506 13 350 1.6 4.8 0.00 0.00 0.00 77 1016.2
20260505115007 13 309 1.6 4.8 0.00 0.00 0.00 77 1016.2
20260505114518 13 299 1.6 4.8 0.00 0.00 0.00 77 1016.1
20260505114010 13 9 0.0 3.2 0.00 0.00 0.00 78 1016.2
20260505113510 13 320 0.0 4.8 0.00 0.00 0.00 78 1016.2
20260505113026 13 327 0.0 4.8 0.00 0.00 0.00 79 1016.2
20260505112512 13 338 0.0 6.4 0.00 0.00 0.00 79 1016.3
20260505112010 12 300 1.6 6.4 0.00 0.00 0.00 79 1016.3
20260505111526 12 11 0.0 3.2 0.00 0.00 0.00 80 1016.4
20260505111011 12 313 0.0 4.8 0.00 0.00 0.00 80 1016.3
20260505110504 12 339 1.6 4.8 0.00 0.00 0.00 81 1016.3
20260505102013 12 181 0.0 3.2 0.00 0.00 0.00 80 1016.1
20260505101534 12 295 0.0 1.6 0.00 0.00 0.00 81 1016.1
20260505101010 11 103 0.0 1.6 0.00 0.00 0.00 81 1016.1
20260505100512 11 64 0.0 0.0 0.00 0.00 0.00 81 1016.1
20260505100028 11 134 0.0 0.0 0.00 0.00 0.00 81 1016.0
20260505095508 11 125 0.0 0.0 0.00 0.00 0.00 82 1016.1
20260505095008 11 123 0.0 0.0 0.00 0.00 0.00 81 1016.0
20260505094517 11 165 0.0 0.0 0.00 0.00 0.00 81 1016.0
20260505094007 11 166 0.0 0.0 0.00 0.00 0.00 81 1015.9
20260505093506 11 166 0.0 0.0 0.00 0.00 0.00 81 1016.0
20260505093033 11 166 0.0 0.0 0.00 0.00 0.00 81 1016.0
20260505092509 11 166 0.0 0.0 0.00 0.00 0.00 80 1016.0
20260505092012 11 166 0.0 0.0 0.00 0.00 0.00 80 1016.0
20260505091504 11 166 0.0 0.0 0.00 0.00 0.00 79 1016.0
20260505091007 11 166 0.0 0.0 0.00 0.00 0.00 79 1015.9
20260505090505 11 166 0.0 0.0 0.00 0.00 0.00 78 1015.9
20260505090010 11 166 0.0 0.0 0.00 0.00 0.00 77 1015.9
20260505085508 11 166 0.0 0.0 0.00 0.00 0.00 77 1015.8
20260505085005 11 166 0.0 0.0 0.00 0.00 0.00 77 1015.9
20260505084513 11 166 0.0 0.0 0.00 0.00 0.00 76 1015.8
20260505084008 11 166 0.0 0.0 0.00 0.00 0.00 75 1015.7
20260505083510 11 166 0.0 0.0 0.00 0.00 0.00 75 1015.7
20260505083025 11 166 0.0 0.0 0.00 0.00 0.00 74 1015.6
20260505082504 12 166 0.0 0.0 0.00 0.00 0.00 74 1015.6
20260505082004 12 166 0.0 0.0 0.00 0.00 0.00 73 1015.7
20260505081507 12 166 0.0 0.0 0.00 0.00 0.00 73 1015.6
20260505081004 12 166 0.0 0.0 0.00 0.00 0.00 73 1015.5
20260505080504 12 166 0.0 0.0 0.00 0.00 0.00 72 1015.4
20260505080006 12 166 0.0 0.0 0.00 0.00 0.00 72 1015.4
20260505075507 12 166 0.0 0.0 0.00 0.00 0.00 71 1015.4
20260505075004 12 163 0.0 0.0 0.00 0.00 0.00 70 1015.4
20260505074511 12 164 0.0 0.0 0.00 0.00 0.00 70 1015.4
20260505074005 12 164 0.0 0.0 0.00 0.00 0.00 70 1015.3
20260505073508 12 164 0.0 0.0 0.00 0.00 0.00 69 1015.3
20260505073016 12 164 0.0 0.0 0.00 0.00 0.00 69 1015.3
20260505072512 12 164 0.0 0.0 0.00 0.00 0.00 68 1015.3
20260505072007 12 164 0.0 0.0 0.00 0.00 0.00 68 1015.4
20260505071524 12 164 0.0 0.0 0.00 0.00 0.00 68 1015.4
20260505071004 12 164 0.0 0.0 0.00 0.00 0.00 67 1015.4
20260505070506 13 164 0.0 0.0 0.00 0.00 0.00 67 1015.4
20260505070006 13 164 0.0 0.0 0.00 0.00 0.00 66 1015.4
20260505065505 13 164 0.0 0.0 0.00 0.00 0.00 66 1015.4
20260505065003 13 164 0.0 0.0 0.00 0.00 0.00 65 1015.3
20260505064508 13 164 0.0 0.0 0.00 0.00 0.00 65 1015.3
20260505064006 13 164 0.0 0.0 0.00 0.00 0.00 64 1015.3
20260505063504 13 164 0.0 0.0 0.00 0.00 0.00 64 1015.3
20260505063016 13 164 0.0 0.0 0.00 0.00 0.00 64 1015.2
20260505062512 13 164 0.0 0.0 0.00 0.00 0.00 63 1015.3
20260505062009 13 164 0.0 0.0 0.00 0.00 0.00 63 1015.4
20260505061519 14 164 0.0 3.2 0.00 0.00 0.00 63 1015.3
20260505061010 14 161 0.0 3.2 0.00 0.00 0.00 62 1015.2
20260505060511 14 261 0.0 3.2 0.00 0.00 0.00 62 1015.2
20260505060004 14 151 0.0 3.2 0.00 0.00 0.00 62 1015.2
20260505055503 14 224 0.0 0.0 0.00 0.00 0.00 62 1015.0
20260505055005 14 224 0.0 0.0 0.00 0.00 0.00 62 1015.1
20260505054508 14 224 0.0 3.2 0.00 0.00 0.00 62 1015.2
20260505054010 14 224 0.0 3.2 0.00 0.00 0.00 61 1015.2
20260505053505 14 224 0.0 0.0 0.00 0.00 0.00 61 1015.2
20260505053015 14 224 0.0 0.0 0.00 0.00 0.00 61 1015.2
20260505052507 14 224 0.0 0.0 0.00 0.00 0.00 61 1015.4
20260505052012 15 224 0.0 0.0 0.00 0.00 0.00 61 1015.4
20260505051531 15 224 0.0 0.0 0.00 0.00 0.00 60 1015.5
20260505051011 15 224 0.0 0.0 0.00 0.00 0.00 60 1015.5
20260505050511 15 224 0.0 0.0 0.00 0.00 0.00 59 1015.5
20260505041514 16 224 0.0 0.0 0.00 0.00 0.00 56 1015.4
20260505041007 16 224 0.0 0.0 0.00 0.00 0.00 56 1015.4
20260505040507 16 225 0.0 0.0 0.00 0.00 0.00 55 1015.5
20260505040025 16 225 0.0 0.0 0.00 0.00 0.00 55 1015.6
20260505035510 16 225 0.0 0.0 0.00 0.00 0.00 55 1015.6
20260505035007 16 225 0.0 0.0 0.00 0.00 0.00 56 1015.6
20260505034530 16 225 0.0 0.0 0.00 0.00 0.00 56 1015.6
20260505034007 16 225 0.0 0.0 0.00 0.00 0.00 56 1015.6
20260505033505 16 225 0.0 0.0 0.00 0.00 0.00 55 1015.6
20260505033009 16 225 0.0 0.0 0.00 0.00 0.00 55 1015.6
20260505032504 16 225 0.0 0.0 0.00 0.00 0.00 55 1015.7
20260505032007 17 225 0.0 0.0 0.00 0.00 0.00 54 1015.7
20260505031516 17 225 0.0 0.0 0.00 0.00 0.00 54 1015.6
20260505031007 17 225 0.0 0.0 0.00 0.00 0.00 54 1015.6
20260505030508 17 225 0.0 0.0 0.00 0.00 0.00 54 1015.6
20260505030020 17 225 0.0 0.0 0.00 0.00 0.00 54 1015.7
20260505025511 17 225 0.0 0.0 0.00 0.00 0.00 54 1015.7
20260505025011 17 225 0.0 0.0 0.00 0.00 0.00 54 1015.7
20260505024525 17 249 0.0 3.2 0.00 0.00 0.00 54 1015.6
20260505024009 17 249 0.0 3.2 0.00 0.00 0.00 54 1015.5
20260505023508 17 249 0.0 3.2 0.00 0.00 0.00 54 1015.6
20260505023027 17 195 0.0 0.0 0.00 0.00 0.00 54 1015.5
20260505022506 17 195 0.0 0.0 0.00 0.00 0.00 54 1015.5
20260505022005 16 195 0.0 0.0 0.00 0.00 0.00 54 1015.4
20260505021512 16 195 0.0 0.0 0.00 0.00 0.00 54 1015.4
20260505021005 16 195 0.0 0.0 0.00 0.00 0.00 54 1015.3
20260505020507 16 195 0.0 0.0 0.00 0.00 0.00 54 1015.3
20260505020016 16 195 0.0 0.0 0.00 0.00 0.00 54 1015.3
20260505015512 17 195 0.0 0.0 0.00 0.00 0.00 53 1015.3
20260505015012 17 195 0.0 0.0 0.00 0.00 0.00 53 1015.3
20260505014525 17 195 0.0 0.0 0.00 0.00 0.00 52 1015.1
20260505014012 17 195 0.0 0.0 0.00 0.00 0.00 51 1015.1
20260505013508 17 195 0.0 1.6 0.00 0.00 0.00 52 1015.1
20260505013026 17 195 0.0 1.6 0.00 0.00 0.00 51 1015.1
20260505012511 17 195 0.0 3.2 0.00 0.00 0.00 50 1014.9
20260505012009 17 195 0.0 3.2 0.00 0.00 0.00 49 1014.9
20260505011508 18 195 0.0 3.2 0.00 0.00 0.00 48 1014.9
20260505011005 18 195 0.0 3.2 0.00 0.00 0.00 47 1014.8
20260505010508 18 195 0.0 3.2 0.00 0.00 0.00 47 1014.9
20260505010019 18 195 0.0 3.2 0.00 0.00 0.00 46 1014.8
20260505005509 18 195 0.0 3.2 0.00 0.00 0.00 45 1014.9
20260505005008 19 195 0.0 3.2 0.00 0.00 0.00 44 1014.9
20260505004524 19 195 0.0 3.2 0.00 0.00 0.00 44 1014.7
20260505004008 20 195 0.0 3.2 0.00 0.00 0.00 44 1014.6
20260505003515 20 195 0.0 3.2 0.00 0.00 0.00 43 1014.6
20260505003024 20 169 0.0 3.2 0.00 0.00 0.00 41 1014.5
20260505002509 20 169 0.0 0.0 0.00 0.00 0.00 41 1014.6
20260505002011 20 169 0.0 3.2 0.00 0.00 0.00 40 1014.6
20260505001508 21 169 0.0 3.2 0.00 0.00 0.00 40 1014.6
20260505001003 21 169 0.0 3.2 0.00 0.00 0.00 39 1014.5
20260505000504 21 169 0.0 3.2 0.00 0.00 0.00 38 1014.5
20260505000014 21 169 0.0 3.2 0.00 0.00 0.00 38 1014.5
20260504235508 21 169 0.0 4.8 0.00 0.00 0.00 37 1014.5
20260504235007 21 169 0.0 4.8 0.00 0.00 0.00 37 1014.3
20260504234522 22 228 0.0 3.2 0.00 0.00 0.00 37 1014.3
20260504234007 22 217 0.0 8.0 0.00 0.00 0.00 37 1014.3
20260504233508 22 217 0.0 8.0 0.00 0.00 0.00 38 1014.2
20260504233024 22 246 1.6 4.8 0.00 0.00 0.00 37 1014.2
20260504232509 22 223 1.6 6.4 0.00 0.00 0.00 36 1014.2
20260504232003 22 217 1.6 8.0 0.00 0.00 0.00 37 1014.2
20260504231504 23 229 1.6 8.0 0.00 0.00 0.00 36 1014.1
20260504231005 23 153 3.2 4.8 0.00 0.00 0.00 35 1014.1
20260504230504 23 199 1.6 11.3 0.00 0.00 0.00 34 1014.1
20260504230011 23 171 3.2 11.3 0.00 0.00 0.00 34 1014.1
20260504225509 23 207 1.6 12.9 0.00 0.00 0.00 33 1014.0
20260504225006 23 360 4.8 12.9 0.00 0.00 0.00 33 1014.1
20260504224519 23 225 0.0 17.7 0.00 0.00 0.00 34 1014.0
20260504224007 24 160 4.8 17.7 0.00 0.00 0.00 32 1014.0
20260504223508 24 151 3.2 12.9 0.00 0.00 0.00 31 1014.1
20260504223023 25 223 1.6 16.1 0.00 0.00 0.00 31 1014.1
20260504222508 25 352 3.2 16.1 0.00 0.00 0.00 31 1014.2
20260504222013 25 202 1.6 9.7 0.00 0.00 0.00 31 1014.1
20260504221524 25 163 3.2 9.7 0.00 0.00 0.00 30 1014.2
20260504221007 25 254 1.6 6.4 0.00 0.00 0.00 30 1014.2
20260504220506 25 211 3.2 6.4 0.00 0.00 0.00 28 1014.2
20260504220011 25 216 1.6 8.0 0.00 0.00 0.00 27 1014.2
20260504215505 25 235 3.2 8.0 0.00 0.00 0.00 26 1014.2
20260504215007 25 232 3.2 8.0 0.00 0.00 0.00 25 1014.2
20260504214514 25 163 1.6 6.4 0.00 0.00 0.00 28 1014.1
20260504214008 25 181 1.6 4.8 0.00 0.00 0.00 28 1014.1
20260504213509 25 308 0.0 9.7 0.00 0.00 0.00 30 1014.1
20260504213020 25 232 1.6 9.7 0.00 0.00 0.00 29 1014.1
20260504212513 25 221 1.6 12.9 0.00 0.00 0.00 29 1014.1
20260504212013 25 134 1.6 12.9 0.00 0.00 0.00 30 1014.1
20260504211524 25 187 1.6 11.3 0.00 0.00 0.00 28 1014.1
20260504211007 25 184 3.2 11.3 0.00 0.00 0.00 27 1014.0
20260504210514 25 161 3.2 9.7 0.00 0.00 0.00 29 1014.0
20260504210032 25 292 3.2 11.3 0.00 0.00 0.00 28 1014.1
20260504205509 25 169 3.2 11.3 0.00 0.00 0.00 27 1014.2
20260504205005 25 105 3.2 9.7 0.00 0.00 0.00 28 1014.2
20260504204512 25 209 3.2 12.9 0.00 0.00 0.00 27 1014.3
20260504204005 25 80 6.4 12.9 0.00 0.00 0.00 28 1014.3
20260504203513 25 288 1.6 17.7 0.00 0.00 0.00 28 1014.4
20260504203024 25 107 3.2 17.7 0.00 0.00 0.00 29 1014.4
20260504202507 25 54 3.2 11.3 0.00 0.00 0.00 30 1014.3
20260504202008 25 178 3.2 11.3 0.00 0.00 0.00 29 1014.4
20260504201520 25 224 1.6 9.7 0.00 0.00 0.00 28 1014.4
20260504201014 25 117 3.2 12.9 0.00 0.00 0.00 28 1014.4
20260504200509 25 197 3.2 12.9 0.00 0.00 0.00 27 1014.5
20260504200026 25 276 4.8 12.9 0.00 0.00 0.00 28 1014.5
20260504195511 25 235 1.6 12.9 0.00 0.00 0.00 29 1014.6
20260504195013 25 198 3.2 11.3 0.00 0.00 0.00 30 1014.7
20260504194511 25 126 3.2 9.7 0.00 0.00 0.00 30 1014.8
20260504194006 24 130 1.6 6.4 0.00 0.00 0.00 31 1014.8
20260504193509 24 75 3.2 14.5 0.00 0.00 0.00 30 1014.8
20260504193018 24 110 6.4 14.5 0.00 0.00 0.00 31 1014.9
20260504192508 24 208 6.4 11.3 0.00 0.00 0.00 29 1015.0
20260504192012 24 136 3.2 11.3 0.00 0.00 0.00 30 1015.1
20260504191524 24 168 4.8 11.3 0.00 0.00 0.00 28 1015.1
20260504191010 24 164 3.2 11.3 0.00 0.00 0.00 28 1015.3
20260504190508 24 254 1.6 11.3 0.00 0.00 0.00 29 1015.3
20260504190026 24 144 3.2 14.5 0.00 0.00 0.00 28 1015.4
20260504185509 24 133 4.8 14.5 0.00 0.00 0.00 30 1015.5
20260504185011 24 121 4.8 11.3 0.00 0.00 0.00 29 1015.6
20260504184530 24 84 4.8 11.3 0.00 0.00 0.00 30 1015.6